Location: Milton Keynes
(52.0316°N, 0.7531°W)
Time: 17:07:36
(UTC+00:00)

Envisat - Pass Details

Date: 06 December 2022
Orbit: 763 x 765 km, 98.2° (Epoch: 06 February)

Event Time Altitude Azimuth Distance (km) Brightness Sun altitude
Rises 04:06:18 0° 17° (NNE) 3,247 6.5 -34.0°
Reaches altitude 10° 04:08:40 10° 21° (NNE) 2,316 5.7 -33.6°
Enters shadow 04:11:06 28° 32° (NNE) 1,426 4.6 -33.2°
